| time (UTC) | temp F | wind direction | speed knots | gust knots | rain 1hr in | rain 24hr in | rain mn in | humidity % | barometer mb |
| 20260508191601 | 52 | 0.0 | 0.0 | 0.00 | 0.00 | 0.00 | 42 | 1025.3 | |
| 20260508190055 | 53 | 0.0 | 0.0 | 0.00 | 0.00 | 0.00 | 41 | 1025.3 | |
| 20260508184608 | 54 | 0.0 | 0.0 | 0.00 | 0.00 | 0.00 | 40 | 1025.2 | |
| 20260508183053 | 54 | 0.0 | 0.0 | 0.00 | 0.00 | 0.00 | 40 | 1025.1 | |
| 20260508181603 | 55 | 0.0 | 0.0 | 0.00 | 0.00 | 0.00 | 41 | 1025.0 | |
| 20260508180055 | 55 | 0.0 | 0.0 | 0.00 | 0.00 | 0.00 | 37 | 1024.8 | |
| 20260508174559 | 56 | 0.0 | 0.0 | 0.00 | 0.00 | 0.00 | 35 | 1024.8 | |
| 20260508173051 | 56 | 0.0 | 0.0 | 0.00 | 0.00 | 0.00 | 36 | 1024.7 | |
| 20260508171555 | 57 | 0.0 | 0.0 | 0.00 | 0.00 | 0.00 | 36 | 1024.6 | |
| 20260508170052 | 58 | 0.0 | 0.0 | 0.00 | 0.00 | 0.00 | 45 | 1024.5 | |
| 20260508164554 | 58 | 0.0 | 0.0 | 0.00 | 0.00 | 0.00 | 37 | 1024.5 | |
| 20260508163053 | 58 | 0.0 | 0.0 | 0.00 | 0.00 | 0.00 | 37 | 1024.6 | |
| 20260508161556 | 58 | 0.0 | 0.0 | 0.00 | 0.00 | 0.00 | 40 | 1024.5 | |
| 20260508160123 | 58 | 0.0 | 0.0 | 0.00 | 0.00 | 0.00 | 42 | 1024.5 | |
| 20260508154557 | 58 | 0.0 | 0.0 | 0.00 | 0.00 | 0.00 | 41 | 1024.5 | |
| 20260508153054 | 58 | 0.0 | 0.0 | 0.00 | 0.00 | 0.00 | 40 | 1024.3 | |
| 20260508151552 | 59 | 0.0 | 0.0 | 0.00 | 0.00 | 0.00 | 40 | 1024.4 | |
| 20260508150053 | 58 | 0.0 | 0.0 | 0.00 | 0.00 | 0.00 | 41 | 1024.6 | |
| 20260508144551 | 59 | 0.0 | 0.0 | 0.00 | 0.00 | 0.00 | 41 | 1024.5 | |
| 20260508143104 | 59 | 0.0 | 0.0 | 0.00 | 0.00 | 0.00 | 39 | 1024.6 | |
| 20260508141556 | 59 | 0.0 | 0.0 | 0.00 | 0.00 | 0.00 | 39 | 1024.8 | |
| 20260508140053 | 58 | 0.0 | 0.0 | 0.00 | 0.00 | 0.00 | 39 | 1024.8 | |
| 20260508134555 | 58 | 0.0 | 0.0 | 0.00 | 0.00 | 0.00 | 40 | 1024.9 | |
| 20260508133057 | 59 | 0.0 | 0.0 | 0.00 | 0.00 | 0.00 | 40 | 1024.9 | |
| 20260508131555 | 59 | 0.0 | 0.0 | 0.00 | 0.00 | 0.00 | 39 | 1024.9 | |
| 20260508130100 | 60 | 0.0 | 0.0 | 0.00 | 0.00 | 0.00 | 39 | 1025.0 | |
| 20260508124554 | 59 | 0.0 | 0.0 | 0.00 | 0.00 | 0.00 | 39 | 1025.0 | |
| 20260508123057 | 60 | 0.0 | 0.0 | 0.00 | 0.00 | 0.00 | 38 | 1025.0 | |
| 20260508121606 | 59 | 0.0 | 0.0 | 0.00 | 0.00 | 0.00 | 37 | 1025.0 | |
| 20260508120057 | 59 | 0.0 | 0.0 | 0.00 | 0.00 | 0.00 | 37 | 1025.0 | |
| 20260508114556 | 59 | 0.0 | 0.0 | 0.00 | 0.00 | 0.00 | 39 | 1024.9 | |
| 20260508113107 | 59 | 0.0 | 0.0 | 0.00 | 0.00 | 0.00 | 40 | 1025.0 | |
| 20260508111603 | 59 | 0.0 | 0.0 | 0.00 | 0.00 | 0.00 | 40 | 1024.9 | |
| 20260508110059 | 59 | 0.0 | 0.0 | 0.00 | 0.00 | 0.00 | 41 | 1025.0 | |
| 20260508104558 | 60 | 0.0 | 0.0 | 0.00 | 0.00 | 0.00 | 40 | 1024.9 | |
| 20260508103103 | 59 | 0.0 | 0.0 | 0.00 | 0.00 | 0.00 | 39 | 1025.0 | |
| 20260508101548 | 59 | 0.0 | 0.0 | 0.00 | 0.00 | 0.00 | 39 | 1024.8 | |
| 20260508100051 | 59 | 0.0 | 0.0 | 0.00 | 0.00 | 0.00 | 39 | 1025.0 | |
| 20260508094605 | 59 | 0.0 | 0.0 | 0.00 | 0.00 | 0.00 | 39 | 1024.9 | |
| 20260508093053 | 58 | 0.0 | 0.0 | 0.00 | 0.00 | 0.00 | 38 | 1024.9 | |
| 20260508091555 | 58 | 0.0 | 0.0 | 0.00 | 0.00 | 0.00 | 38 | 1025.0 | |
| 20260508090051 | 57 | 0.0 | 0.0 | 0.00 | 0.00 | 0.00 | 37 | 1024.9 | |
| 20260508084553 | 57 | 0.0 | 0.0 | 0.00 | 0.00 | 0.00 | 44 | 1024.9 | |
| 20260508083130 | 57 | 0.0 | 0.0 | 0.00 | 0.00 | 0.00 | 48 | 1024.7 | |
| 20260508081554 | 56 | 0.0 | 0.0 | 0.00 | 0.00 | 0.00 | 55 | 1024.7 | |
| 20260508080100 | 57 | 0.0 | 0.0 | 0.00 | 0.00 | 0.00 | 55 | 1024.6 | |
| 20260508074552 | 57 | 0.0 | 0.0 | 0.00 | 0.00 | 0.00 | 56 | 1024.6 | |
| 20260508073056 | 56 | 0.0 | 0.0 | 0.00 | 0.00 | 0.00 | 58 | 1024.5 | |
| 20260508071555 | 55 | 0.0 | 0.0 | 0.00 | 0.00 | 0.00 | 63 | 1024.4 | |
| 20260508070058 | 53 | 0.0 | 0.0 | 0.00 | 0.00 | 0.00 | 66 | 1024.1 | |
| 20260508064607 | 52 | 0.0 | 0.0 | 0.00 | 0.00 | 0.00 | 67 | 1024.1 | |
| 20260508063048 | 51 | 0.0 | 0.0 | 0.00 | 0.00 | 0.00 | 75 | 1023.9 | |
| 20260508061553 | 50 | 0.0 | 0.0 | 0.00 | 0.00 | 0.00 | 81 | 1023.8 | |
| 20260508060106 | 49 | 0.0 | 0.0 | 0.00 | 0.00 | 0.00 | 82 | 1023.6 | |
| 20260508054554 | 48 | 0.0 | 0.0 | 0.00 | 0.00 | 0.00 | 87 | 1023.6 | |
| 20260508053049 | 47 | 0.0 | 0.0 | 0.00 | 0.00 | 0.00 | 89 | 1023.4 | |
| 20260508051550 | 45 | 0.0 | 0.0 | 0.00 | 0.00 | 0.00 | 93 | 1023.4 | |
| 20260508050053 | 40 | 0.0 | 0.0 | 0.00 | 0.00 | 0.00 | 91 | 1023.3 | |
| 20260508044552 | 39 | 0.0 | 0.0 | 0.00 | 0.00 | 0.00 | 91 | 1023.2 | |
| 20260508043048 | 38 | 0.0 | 0.0 | 0.00 | 0.00 | 0.00 | 90 | 1023.1 | |
| 20260508041555 | 37 | 0.0 | 0.0 | 0.00 | 0.00 | 0.00 | 90 | 1023.0 | |
| 20260508034555 | 36 | 0.0 | 0.0 | 0.00 | 0.00 | 0.00 | 89 | 1022.8 | |
| 20260508033053 | 36 | 0.0 | 0.0 | 0.00 | 0.00 | 0.00 | 89 | 1022.8 | |
| 20260508031551 | 36 | 0.0 | 0.0 | 0.00 | 0.00 | 0.00 | 89 | 1022.6 | |
| 20260508030108 | 36 | 0.0 | 0.0 | 0.00 | 0.00 | 0.00 | 89 | 1022.6 | |
| 20260508024601 | 37 | 0.0 | 0.0 | 0.00 | 0.00 | 0.00 | 89 | 1022.6 | |
| 20260508023054 | 37 | 0.0 | 0.0 | 0.00 | 0.00 | 0.00 | 89 | 1022.4 | |
| 20260508021556 | 37 | 0.0 | 0.0 | 0.00 | 0.00 | 0.00 | 88 | 1022.4 | |
| 20260508020055 | 37 | 0.0 | 0.0 | 0.00 | 0.00 | 0.00 | 88 | 1022.3 | |
| 20260508014553 | 37 | 0.0 | 0.0 | 0.00 | 0.00 | 0.00 | 88 | 1022.3 | |
| 20260508013055 | 38 | 0.0 | 0.0 | 0.00 | 0.00 | 0.00 | 88 | 1022.2 | |
| 20260508011602 | 38 | 0.0 | 0.0 | 0.00 | 0.00 | 0.00 | 88 | 1022.2 | |
| 20260508010059 | 38 | 0.0 | 0.0 | 0.00 | 0.00 | 0.00 | 88 | 1022.1 | |
| 20260508004605 | 39 | 0.0 | 0.0 | 0.00 | 0.00 | 0.00 | 87 | 1022.0 | |
| 20260508003108 | 39 | 0.0 | 0.0 | 0.00 | 0.00 | 0.00 | 87 | 1022.1 | |
| 20260508001555 | 39 | 0.0 | 0.0 | 0.00 | 0.00 | 0.00 | 87 | 1022.0 | |
| 20260508000054 | 40 | 0.0 | 0.0 | 0.00 | 0.00 | 0.00 | 87 | 1021.9 | |
| 20260507234551 | 40 | 0.0 | 0.0 | 0.00 | 0.00 | 0.00 | 86 | 1021.9 | |
| 20260507233053 | 40 | 0.0 | 0.0 | 0.00 | 0.00 | 0.00 | 85 | 1021.8 | |
| 20260507231608 | 41 | 0.0 | 0.0 | 0.00 | 0.00 | 0.00 | 85 | 1021.9 | |
| 20260507230056 | 41 | 0.0 | 0.0 | 0.00 | 0.00 | 0.00 | 85 | 1021.7 | |
| 20260507224603 | 41 | 0.0 | 0.0 | 0.00 | 0.00 | 0.00 | 84 | 1021.7 | |
| 20260507223053 | 42 | 0.0 | 0.0 | 0.00 | 0.00 | 0.00 | 83 | 1021.7 | |
| 20260507221556 | 42 | 0.0 | 0.0 | 0.00 | 0.00 | 0.00 | 83 | 1021.5 | |
| 20260507220054 | 43 | 0.0 | 0.0 | 0.00 | 0.00 | 0.00 | 82 | 1021.4 | |
| 20260507214604 | 43 | 0.0 | 0.0 | 0.00 | 0.00 | 0.00 | 81 | 1021.4 | |
| 20260507213107 | 44 | 0.0 | 0.0 | 0.00 | 0.00 | 0.00 | 81 | 1021.2 | |
| 20260507211549 | 45 | 0.0 | 0.0 | 0.00 | 0.00 | 0.00 | 81 | 1021.0 | |
| 20260507210054 | 45 | 0.0 | 0.0 | 0.00 | 0.00 | 0.00 | 80 | 1020.9 | |
| 20260507204559 | 46 | 0.0 | 0.0 | 0.00 | 0.00 | 0.00 | 79 | 1020.7 | |
| 20260507203053 | 46 | 0.0 | 0.0 | 0.00 | 0.00 | 0.00 | 80 | 1020.5 | |
| 20260507201553 | 47 | 0.0 | 0.0 | 0.00 | 0.00 | 0.00 | 77 | 1020.5 | |
| 20260507200049 | 49 | 0.0 | 0.0 | 0.00 | 0.00 | 0.00 | 75 | 1020.3 | |
| 20260507194548 | 50 | 0.0 | 0.0 | 0.00 | 0.00 | 0.00 | 73 | 1020.1 | |
| 20260507193106 | 51 | 0.0 | 0.0 | 0.00 | 0.00 | 0.00 | 72 | 1020.1 |